| time (UTC) | temp C | wind direction | speed KPH | gust KPH | rain 1hr cm | rain 24hr cm | rain mn cm | humidity % | barometer mb |
| 20260510132237 | 13 | 354 | 0.0 | 4.8 | 0.00 | 0.00 | 0.00 | 99 | 1013.0 |
| 20260510131734 | 12 | 291 | 3.2 | 6.4 | 0.00 | 0.00 | 0.00 | 99 | 1013.1 |
| 20260510131232 | 12 | 224 | 0.0 | 6.4 | 0.00 | 0.00 | 0.00 | 99 | 1013.3 |
| 20260510130728 | 12 | 327 | 0.0 | 6.4 | 0.00 | 0.00 | 0.00 | 99 | 1013.1 |
| 20260510130225 | 12 | 277 | 3.2 | 9.7 | 0.00 | 0.00 | 0.00 | 99 | 1013.2 |
| 20260510125722 | 12 | 213 | 4.8 | 4.8 | 0.00 | 0.00 | 0.00 | 99 | 1013.1 |
| 20260510125218 | 12 | 324 | 4.8 | 6.4 | 0.00 | 0.00 | 0.00 | 99 | 1013.1 |
| 20260510124715 | 11 | 274 | 0.0 | 4.8 | 0.00 | 0.00 | 0.00 | 99 | 1013.2 |
| 20260510124213 | 11 | 335 | 0.0 | 6.4 | 0.00 | 0.00 | 0.00 | 99 | 1013.0 |
| 20260510123707 | 11 | 293 | 1.6 | 3.2 | 0.00 | 0.00 | 0.00 | 99 | 1013.1 |
| 20260510123204 | 11 | 283 | 1.6 | 4.8 | 0.00 | 0.00 | 0.00 | 99 | 1012.7 |
| 20260510122700 | 11 | 302 | 1.6 | 3.2 | 0.00 | 0.00 | 0.00 | 99 | 1012.6 |
| 20260510122156 | 11 | 15 | 0.0 | 3.2 | 0.00 | 0.00 | 0.00 | 99 | 1012.6 |
| 20260510121647 | 11 | 10 | 0.0 | 1.6 | 0.00 | 0.00 | 0.00 | 99 | 1012.9 |
| 20260510121145 | 10 | 293 | 0.0 | 1.6 | 0.00 | 0.00 | 0.00 | 99 | 1012.8 |
| 20260510120642 | 10 | 288 | 1.6 | 4.8 | 0.00 | 0.00 | 0.00 | 99 | 1012.6 |
| 20260510120138 | 10 | 358 | 0.0 | 3.2 | 0.00 | 0.00 | 0.00 | 99 | 1012.6 |
| 20260510115634 | 10 | 14 | 0.0 | 3.2 | 0.00 | 0.00 | 0.00 | 99 | 1012.5 |
| 20260510115133 | 10 | 130 | 0.0 | 1.6 | 0.00 | 0.00 | 0.00 | 99 | 1012.6 |
| 20260510114628 | 10 | 303 | 0.0 | 3.2 | 0.00 | 0.00 | 0.00 | 99 | 1012.5 |
| 20260510114124 | 10 | 293 | 0.0 | 3.2 | 0.00 | 0.00 | 0.00 | 99 | 1012.8 |
| 20260510113620 | 10 | 284 | 1.6 | 3.2 | 0.00 | 0.00 | 0.00 | 99 | 1012.4 |
| 20260510113117 | 10 | 296 | 3.2 | 4.8 | 0.00 | 0.00 | 0.00 | 99 | 1012.5 |
| 20260510112614 | 10 | 335 | 1.6 | 3.2 | 0.00 | 0.00 | 0.00 | 99 | 1012.4 |
| 20260510112110 | 10 | 268 | 1.6 | 3.2 | 0.00 | 0.00 | 0.00 | 99 | 1012.2 |
| 20260510111607 | 10 | 324 | 0.0 | 3.2 | 0.00 | 0.00 | 0.00 | 99 | 1012.1 |
| 20260510111102 | 10 | 299 | 0.0 | 3.2 | 0.00 | 0.00 | 0.00 | 99 | 1012.3 |
| 20260510110558 | 10 | 347 | 0.0 | 3.2 | 0.00 | 0.00 | 0.00 | 99 | 1012.1 |
| 20260510110055 | 10 | 309 | 1.6 | 3.2 | 0.00 | 0.00 | 0.00 | 99 | 1012.0 |
| 20260510105551 | 10 | 307 | 3.2 | 4.8 | 0.00 | 0.00 | 0.00 | 99 | 1011.9 |
| 20260510105045 | 10 | 283 | 0.0 | 4.8 | 0.00 | 0.00 | 0.00 | 99 | 1011.9 |
| 20260510104542 | 10 | 3 | 1.6 | 4.8 | 0.00 | 0.00 | 0.00 | 99 | 1011.6 |
| 20260510104039 | 10 | 134 | 3.2 | 4.8 | 0.00 | 0.00 | 0.00 | 99 | 1011.6 |
| 20260510103536 | 10 | 75 | 1.6 | 6.4 | 0.00 | 0.00 | 0.00 | 99 | 1011.7 |
| 20260510103032 | 9 | 49 | 3.2 | 4.8 | 0.00 | 0.00 | 0.00 | 99 | 1011.6 |
| 20260510102528 | 9 | 20 | 0.0 | 6.4 | 0.00 | 0.00 | 0.00 | 99 | 1011.5 |
| 20260510102024 | 9 | 0 | 1.6 | 4.8 | 0.00 | 0.00 | 0.00 | 99 | 1011.5 |
| 20260510101522 | 9 | 103 | 0.0 | 3.2 | 0.00 | 0.00 | 0.00 | 99 | 1011.4 |
| 20260510101021 | 9 | 27 | 1.6 | 4.8 | 0.00 | 0.00 | 0.00 | 99 | 1011.5 |
| 20260510100516 | 9 | 46 | 3.2 | 4.8 | 0.00 | 0.00 | 0.00 | 99 | 1011.6 |
| 20260510100014 | 9 | 37 | 0.0 | 4.8 | 0.00 | 0.00 | 0.00 | 99 | 1011.3 |
| 20260510095509 | 9 | 5 | 3.2 | 4.8 | 0.05 | 0.00 | 0.00 | 99 | 1011.4 |
| 20260510095008 | 9 | 136 | 0.0 | 4.8 | 0.05 | 0.00 | 0.00 | 99 | 1011.5 |
| 20260510094503 | 9 | 113 | 3.2 | 3.2 | 0.00 | 0.00 | 0.00 | 99 | 1011.5 |
| 20260510093959 | 9 | 57 | 1.6 | 4.8 | 0.00 | 0.00 | 0.00 | 99 | 1011.5 |
| 20260510093455 | 9 | 4 | 0.0 | 3.2 | 0.00 | 0.00 | 0.00 | 99 | 1011.4 |
| 20260510092951 | 9 | 109 | 0.0 | 6.4 | 0.00 | 0.00 | 0.00 | 99 | 1011.6 |
| 20260510092448 | 9 | 147 | 0.0 | 4.8 | 0.00 | 0.00 | 0.00 | 99 | 1011.6 |
| 20260510091942 | 9 | 125 | 3.2 | 4.8 | 0.00 | 0.00 | 0.00 | 99 | 1011.4 |
| 20260510091440 | 9 | 6 | 0.0 | 4.8 | 0.00 | 0.00 | 0.00 | 99 | 1011.2 |
| 20260510090936 | 9 | 55 | 0.0 | 4.8 | 0.00 | 0.00 | 0.00 | 99 | 1011.6 |
| 20260510090433 | 9 | 47 | 0.0 | 3.2 | 0.00 | 0.00 | 0.00 | 99 | 1011.3 |
| 20260510085929 | 9 | 53 | 0.0 | 4.8 | 0.00 | 0.00 | 0.00 | 99 | 1011.7 |
| 20260510085424 | 9 | 89 | 3.2 | 4.8 | 0.00 | 0.00 | 0.00 | 99 | 1011.8 |
| 20260510084919 | 9 | 60 | 0.0 | 1.6 | 0.00 | 0.00 | 0.00 | 99 | 1011.8 |
| 20260510084417 | 9 | 93 | 0.0 | 3.2 | 0.00 | 0.00 | 0.00 | 99 | 1011.9 |
| 20260510083914 | 9 | 88 | 0.0 | 3.2 | 0.00 | 0.00 | 0.00 | 99 | 1011.9 |
| 20260510083410 | 9 | 124 | 0.0 | 4.8 | 0.00 | 0.00 | 0.00 | 99 | 1011.8 |
| 20260510082905 | 9 | 127 | 0.0 | 3.2 | 0.00 | 0.00 | 0.00 | 99 | 1011.8 |
| 20260510082403 | 9 | 100 | 3.2 | 4.8 | 0.00 | 0.00 | 0.00 | 99 | 1012.1 |
| 20260510081901 | 9 | 106 | 0.0 | 1.6 | 0.00 | 0.00 | 0.00 | 99 | 1012.2 |
| 20260510081358 | 9 | 146 | 1.6 | 3.2 | 0.00 | 0.00 | 0.00 | 99 | 1012.2 |
| 20260510080854 | 8 | 161 | 1.6 | 3.2 | 0.00 | 0.00 | 0.00 | 99 | 1012.2 |
| 20260510080348 | 8 | 350 | 0.0 | 1.6 | 0.00 | 0.00 | 0.00 | 99 | 1012.2 |
| 20260510075846 | 8 | 22 | 0.0 | 4.8 | 0.00 | 0.00 | 0.00 | 99 | 1012.2 |
| 20260510075344 | 8 | 287 | 1.6 | 3.2 | 0.00 | 0.00 | 0.00 | 99 | 1012.2 |
| 20260510074840 | 8 | 326 | 0.0 | 3.2 | 0.00 | 0.00 | 0.00 | 99 | 1012.3 |
| 20260510074337 | 8 | 35 | 0.0 | 3.2 | 0.00 | 0.00 | 0.00 | 99 | 1012.1 |
| 20260510073833 | 8 | 41 | 3.2 | 6.4 | 0.00 | 0.00 | 0.00 | 99 | 1011.9 |
| 20260510073323 | 8 | 353 | 1.6 | 4.8 | 0.00 | 0.00 | 0.00 | 99 | 1012.3 |
| 20260510072820 | 8 | 283 | 3.2 | 9.7 | 0.00 | 0.00 | 0.00 | 99 | 1012.1 |
| 20260510072317 | 9 | 315 | 3.2 | 6.4 | 0.00 | 0.00 | 0.00 | 99 | 1012.2 |
| 20260510071813 | 8 | 306 | 1.6 | 3.2 | 0.00 | 0.00 | 0.00 | 99 | 1011.4 |
| 20260510071309 | 8 | 165 | 0.0 | 3.2 | 0.00 | 0.00 | 0.00 | 99 | 1011.5 |
| 20260510070808 | 8 | 170 | 0.0 | 3.2 | 0.00 | 0.00 | 0.00 | 99 | 1011.5 |
| 20260510070259 | 8 | 308 | 1.6 | 3.2 | 0.00 | 0.00 | 0.00 | 99 | 1011.4 |
| 20260510065758 | 8 | 327 | 0.0 | 3.2 | 0.00 | 0.00 | 0.00 | 99 | 1011.5 |
| 20260510065250 | 8 | 5 | 0.0 | 3.2 | 0.00 | 0.00 | 0.00 | 99 | 1011.6 |
| 20260510064747 | 8 | 219 | 0.0 | 1.6 | 0.00 | 0.00 | 0.00 | 99 | 1011.7 |
| 20260510064244 | 8 | 166 | 0.0 | 1.6 | 0.00 | 0.00 | 0.00 | 99 | 1011.6 |
| 20260510063740 | 8 | 310 | 0.0 | 3.2 | 0.00 | 0.00 | 0.00 | 99 | 1011.7 |
| 20260510063237 | 8 | 5 | 0.0 | 3.2 | 0.00 | 0.00 | 0.00 | 99 | 1011.9 |
| 20260510062733 | 8 | 191 | 0.0 | 1.6 | 0.00 | 0.00 | 0.00 | 99 | 1011.7 |
| 20260510062229 | 8 | 240 | 0.0 | 3.2 | 0.00 | 0.00 | 0.00 | 99 | 1011.8 |
| 20260510061725 | 8 | 173 | 0.0 | 1.6 | 0.00 | 0.00 | 0.00 | 99 | 1011.8 |
| 20260510061222 | 8 | 124 | 0.0 | 0.0 | 0.00 | 0.00 | 0.00 | 99 | 1011.6 |
| 20260510060718 | 8 | 119 | 1.6 | 1.6 | 0.00 | 0.00 | 0.00 | 99 | 1011.7 |
| 20260510060215 | 8 | 132 | 0.0 | 1.6 | 0.00 | 0.00 | 0.00 | 99 | 1011.7 |
| 20260510055712 | 8 | 119 | 0.0 | 1.6 | 0.00 | 0.00 | 0.00 | 99 | 1011.7 |
| 20260510055210 | 8 | 358 | 0.0 | 1.6 | 0.00 | 0.00 | 0.00 | 99 | 1011.7 |
| 20260510054705 | 8 | 167 | 0.0 | 1.6 | 0.00 | 0.00 | 0.00 | 99 | 1011.8 |
| 20260510054201 | 8 | 260 | 1.6 | 3.2 | 0.00 | 0.00 | 0.00 | 99 | 1011.6 |
| 20260510053700 | 8 | 235 | 0.0 | 1.6 | 0.00 | 0.00 | 0.00 | 99 | 1011.3 |
| 20260510053157 | 8 | 135 | 0.0 | 1.6 | 0.00 | 0.00 | 0.00 | 99 | 1011.3 |
| 20260510052653 | 8 | 95 | 3.2 | 3.2 | 0.00 | 0.00 | 0.00 | 99 | 1011.4 |
| 20260510052149 | 8 | 104 | 1.6 | 3.2 | 0.00 | 0.00 | 0.00 | 99 | 1011.1 |
| 20260510051645 | 8 | 173 | 0.0 | 1.6 | 0.00 | 0.00 | 0.00 | 99 | 1011.4 |
| 20260510051142 | 8 | 14 | 0.0 | 3.2 | 0.00 | 0.00 | 0.00 | 99 | 1011.3 |
| 20260510050639 | 8 | 102 | 0.0 | 3.2 | 0.00 | 0.00 | 0.00 | 99 | 1011.4 |
| 20260510050136 | 8 | 105 | 3.2 | 3.2 | 0.00 | 0.00 | 0.00 | 99 | 1011.3 |
| 20260510045632 | 8 | 57 | 3.2 | 3.2 | 0.00 | 0.00 | 0.00 | 99 | 1011.3 |
| 20260510045129 | 8 | 97 | 1.6 | 3.2 | 0.00 | 0.00 | 0.00 | 99 | 1011.3 |
| 20260510044625 | 8 | 32 | 0.0 | 4.8 | 0.00 | 0.00 | 0.00 | 99 | 1011.4 |
| 20260510044123 | 8 | 68 | 1.6 | 3.2 | 0.00 | 0.00 | 0.00 | 99 | 1011.2 |
| 20260510043618 | 8 | 87 | 3.2 | 4.8 | 0.00 | 0.00 | 0.00 | 99 | 1011.5 |
| 20260510043109 | 8 | 48 | 0.0 | 3.2 | 0.00 | 0.00 | 0.00 | 99 | 1011.3 |
| 20260510042608 | 9 | 48 | 1.6 | 3.2 | 0.00 | 0.00 | 0.00 | 99 | 1011.4 |
| 20260510042102 | 9 | 349 | 0.0 | 3.2 | 0.00 | 0.00 | 0.00 | 99 | 1011.3 |
| 20260510041559 | 9 | 20 | 0.0 | 3.2 | 0.00 | 0.00 | 0.00 | 99 | 1011.6 |
| 20260510041057 | 9 | 67 | 1.6 | 4.8 | 0.00 | 0.00 | 0.00 | 99 | 1011.4 |
| 20260510040554 | 9 | 54 | 3.2 | 4.8 | 0.00 | 0.00 | 0.00 | 99 | 1011.4 |
| 20260510040049 | 10 | 58 | 1.6 | 6.4 | 0.00 | 0.76 | 0.76 | 99 | 1011.5 |
| 20260510035546 | 10 | 18 | 0.0 | 4.8 | 0.00 | 0.76 | 0.76 | 99 | 1011.3 |
| 20260510035045 | 10 | 26 | 1.6 | 4.8 | 0.00 | 0.76 | 0.76 | 99 | 1011.3 |
| 20260510034544 | 10 | 112 | 0.0 | 4.8 | 0.00 | 0.76 | 0.76 | 99 | 1011.4 |
| 20260510034041 | 10 | 25 | 1.6 | 3.2 | 0.00 | 0.76 | 0.76 | 99 | 1011.4 |
| 20260510033537 | 10 | 110 | 1.6 | 4.8 | 0.00 | 0.76 | 0.76 | 99 | 1011.5 |
| 20260510033035 | 10 | 18 | 3.2 | 4.8 | 0.00 | 0.76 | 0.76 | 99 | 1011.1 |
| 20260510032531 | 10 | 0 | 0.0 | 4.8 | 0.00 | 0.76 | 0.76 | 99 | 1011.1 |
| 20260510032027 | 10 | 29 | 3.2 | 4.8 | 0.00 | 0.76 | 0.76 | 99 | 1011.4 |
| 20260510031522 | 10 | 357 | 1.6 | 3.2 | 0.00 | 0.76 | 0.76 | 99 | 1011.2 |
| 20260510031018 | 10 | 346 | 1.6 | 4.8 | 0.00 | 0.76 | 0.76 | 99 | 1011.2 |
| 20260510030514 | 10 | 28 | 1.6 | 4.8 | 0.00 | 0.76 | 0.76 | 99 | 1011.0 |
| 20260510030011 | 10 | 74 | 1.6 | 3.2 | 0.00 | 0.76 | 0.76 | 99 | 1010.9 |
| 20260510025508 | 10 | 143 | 1.6 | 3.2 | 0.00 | 0.76 | 0.76 | 99 | 1011.2 |
| 20260510025005 | 10 | 4 | 1.6 | 3.2 | 0.00 | 0.76 | 0.76 | 99 | 1011.1 |
| 20260510024502 | 10 | 47 | 1.6 | 3.2 | 0.00 | 0.76 | 0.76 | 99 | 1011.2 |
| 20260510023957 | 10 | 6 | 3.2 | 4.8 | 0.00 | 0.76 | 0.76 | 99 | 1011.3 |
| 20260510023449 | 10 | 99 | 1.6 | 8.0 | 0.00 | 0.76 | 0.76 | 99 | 1011.2 |
| 20260510022946 | 10 | 100 | 0.0 | 11.3 | 0.00 | 0.76 | 0.76 | 99 | 1011.1 |
| 20260510022445 | 10 | 316 | 0.0 | 3.2 | 0.00 | 0.76 | 0.76 | 99 | 1011.3 |
| 20260510021944 | 10 | 22 | 1.6 | 6.4 | 0.00 | 0.76 | 0.76 | 99 | 1011.1 |
| 20260510021442 | 9 | 43 | 1.6 | 3.2 | 0.00 | 0.76 | 0.76 | 99 | 1011.1 |
| 20260510020938 | 10 | 119 | 0.0 | 4.8 | 0.00 | 0.76 | 0.76 | 99 | 1011.1 |
| 20260510020433 | 10 | 100 | 3.2 | 4.8 | 0.00 | 0.76 | 0.76 | 99 | 1011.2 |
| 20260510015929 | 9 | 39 | 0.0 | 3.2 | 0.00 | 0.76 | 0.76 | 99 | 1011.2 |
| 20260510015425 | 9 | 102 | 0.0 | 1.6 | 0.00 | 0.76 | 0.76 | 99 | 1011.1 |
| 20260510014920 | 10 | 51 | 0.0 | 3.2 | 0.00 | 0.76 | 0.76 | 99 | 1011.0 |
| 20260510014418 | 10 | 18 | 1.6 | 3.2 | 0.00 | 0.76 | 0.76 | 99 | 1011.1 |
| 20260510013914 | 10 | 67 | 4.8 | 4.8 | 0.00 | 0.76 | 0.76 | 99 | 1010.6 |
| 20260510013409 | 10 | 103 | 0.0 | 4.8 | 0.00 | 0.76 | 0.76 | 99 | 1011.2 |
| 20260510012905 | 10 | 77 | 0.0 | 3.2 | 0.00 | 0.76 | 0.76 | 99 | 1011.1 |
| 20260510012400 | 10 | 125 | 1.6 | 4.8 | 0.00 | 0.76 | 0.76 | 99 | 1011.2 |
| 20260510011854 | 10 | 64 | 3.2 | 3.2 | 0.00 | 0.76 | 0.76 | 99 | 1011.2 |
| 20260510011350 | 10 | 124 | 0.0 | 3.2 | 0.00 | 0.76 | 0.76 | 99 | 1011.2 |
| 20260510010846 | 10 | 86 | 1.6 | 3.2 | 0.00 | 0.76 | 0.76 | 99 | 1011.0 |
| 20260510010344 | 10 | 15 | 0.0 | 3.2 | 0.00 | 0.76 | 0.76 | 99 | 1011.1 |
| 20260510005840 | 10 | 136 | 0.0 | 3.2 | 0.00 | 0.76 | 0.76 | 99 | 1011.0 |
| 20260510005337 | 10 | 5 | 0.0 | 1.6 | 0.00 | 0.76 | 0.76 | 99 | 1010.7 |
| 20260510004835 | 10 | 176 | 0.0 | 4.8 | 0.00 | 0.76 | 0.76 | 99 | 1010.3 |
| 20260510004332 | 10 | 48 | 0.0 | 3.2 | 0.00 | 0.76 | 0.76 | 99 | 1010.4 |
| 20260510003829 | 10 | 47 | 3.2 | 4.8 | 0.00 | 0.76 | 0.76 | 99 | 1010.4 |
| 20260510003326 | 10 | 0 | 1.6 | 4.8 | 0.00 | 0.76 | 0.76 | 99 | 1010.1 |
| 20260510002825 | 10 | 102 | 1.6 | 8.0 | 0.00 | 0.76 | 0.76 | 98 | 1010.0 |
| 20260510002322 | 10 | 88 | 3.2 | 3.2 | 0.00 | 0.76 | 0.76 | 98 | 1010.3 |
| 20260510001819 | 11 | 99 | 3.2 | 6.4 | 0.00 | 0.76 | 0.76 | 98 | 1010.2 |
| 20260510001317 | 11 | 78 | 1.6 | 4.8 | 0.00 | 0.76 | 0.76 | 98 | 1010.1 |
| 20260510000813 | 11 | 23 | 3.2 | 4.8 | 0.00 | 0.76 | 0.76 | 98 | 1010.2 |
| 20260510000311 | 11 | 70 | 3.2 | 3.2 | 0.00 | 0.76 | 0.76 | 98 | 1010.3 |
| 20260509235808 | 11 | 349 | 0.0 | 4.8 | 0.00 | 0.76 | 0.76 | 98 | 1010.3 |
| 20260509235306 | 11 | 120 | 0.0 | 4.8 | 0.00 | 0.76 | 0.76 | 97 | 1010.1 |
| 20260509234800 | 11 | 1 | 4.8 | 9.7 | 0.00 | 0.76 | 0.76 | 97 | 1010.5 |
| 20260509234256 | 11 | 0 | 0.0 | 4.8 | 0.00 | 0.76 | 0.76 | 97 | 1010.1 |
| 20260509233755 | 11 | 0 | 1.6 | 8.0 | 0.00 | 0.76 | 0.76 | 97 | 1010.0 |
| 20260509233252 | 12 | 3 | 1.6 | 3.2 | 0.00 | 0.76 | 0.76 | 96 | 1010.0 |
| 20260509232748 | 12 | 84 | 0.0 | 3.2 | 0.00 | 0.76 | 0.76 | 96 | 1009.9 |
| 20260509232246 | 12 | 84 | 1.6 | 3.2 | 0.00 | 0.76 | 0.76 | 96 | 1010.0 |
| 20260509231742 | 12 | 153 | 0.0 | 4.8 | 0.00 | 0.76 | 0.76 | 95 | 1009.8 |
| 20260509231239 | 12 | 52 | 0.0 | 3.2 | 0.00 | 0.76 | 0.76 | 95 | 1009.7 |
| 20260509230736 | 12 | 203 | 0.0 | 3.2 | 0.00 | 0.76 | 0.76 | 94 | 1009.9 |
| 20260509230233 | 12 | 223 | 0.0 | 3.2 | 0.00 | 0.76 | 0.76 | 94 | 1010.1 |
| 20260509225728 | 12 | 189 | 3.2 | 3.2 | 0.00 | 0.76 | 0.76 | 94 | 1010.1 |
| 20260509225224 | 12 | 22 | 1.6 | 3.2 | 0.00 | 0.76 | 0.76 | 93 | 1010.2 |
| 20260509224720 | 12 | 143 | 0.0 | 4.8 | 0.00 | 0.76 | 0.76 | 92 | 1009.9 |
| 20260509224218 | 12 | 273 | 0.0 | 3.2 | 0.00 | 0.76 | 0.76 | 91 | 1010.1 |
| 20260509223714 | 12 | 134 | 0.0 | 4.8 | 0.00 | 0.76 | 0.76 | 91 | 1010.2 |
| 20260509223211 | 13 | 343 | 1.6 | 4.8 | 0.00 | 0.76 | 0.76 | 91 | 1010.0 |
| 20260509222708 | 13 | 333 | 0.0 | 3.2 | 0.00 | 0.76 | 0.76 | 91 | 1010.0 |
| 20260509222204 | 13 | 226 | 1.6 | 3.2 | 0.00 | 0.76 | 0.76 | 90 | 1009.9 |
| 20260509221659 | 13 | 321 | 0.0 | 3.2 | 0.00 | 0.76 | 0.76 | 90 | 1010.3 |
| 20260509221155 | 13 | 200 | 3.2 | 3.2 | 0.00 | 0.76 | 0.76 | 91 | 1010.2 |
| 20260509220651 | 13 | 321 | 4.8 | 4.8 | 0.00 | 0.76 | 0.76 | 90 | 1010.2 |
| 20260509220147 | 13 | 135 | 0.0 | 4.8 | 0.00 | 0.76 | 0.76 | 92 | 1010.4 |
| 20260509215643 | 12 | 318 | 4.8 | 6.4 | 0.00 | 0.76 | 0.76 | 94 | 1010.2 |
| 20260509215141 | 12 | 255 | 3.2 | 6.4 | 0.00 | 0.76 | 0.76 | 95 | 1010.0 |
| 20260509214637 | 12 | 322 | 3.2 | 4.8 | 0.00 | 0.76 | 0.76 | 96 | 1010.3 |
| 20260509214134 | 12 | 207 | 0.0 | 3.2 | 0.00 | 0.76 | 0.76 | 96 | 1010.2 |
| 20260509213631 | 12 | 267 | 1.6 | 3.2 | 0.00 | 0.76 | 0.76 | 96 | 1010.5 |
| 20260509213126 | 12 | 3 | 0.0 | 4.8 | 0.00 | 0.76 | 0.76 | 96 | 1010.2 |
| 20260509212625 | 12 | 174 | 0.0 | 3.2 | 0.00 | 0.76 | 0.76 | 96 | 1010.4 |
| 20260509212121 | 12 | 153 | 4.8 | 8.0 | 0.00 | 0.76 | 0.76 | 96 | 1010.5 |
| 20260509211617 | 12 | 243 | 0.0 | 4.8 | 0.00 | 0.76 | 0.76 | 97 | 1010.5 |
| 20260509211114 | 12 | 20 | 1.6 | 3.2 | 0.00 | 0.76 | 0.76 | 98 | 1010.4 |
| 20260509210610 | 12 | 284 | 1.6 | 3.2 | 0.00 | 0.76 | 0.76 | 98 | 1010.5 |
| 20260509210108 | 11 | 162 | 0.0 | 3.2 | 0.00 | 0.76 | 0.76 | 99 | 1010.5 |
| 20260509205602 | 11 | 150 | 0.0 | 3.2 | 0.00 | 0.76 | 0.76 | 99 | 1010.5 |
| 20260509205057 | 11 | 4 | 0.0 | 3.2 | 0.05 | 0.76 | 0.76 | 99 | 1010.6 |
| 20260509204554 | 11 | 339 | 0.0 | 3.2 | 0.05 | 0.76 | 0.76 | 99 | 1010.6 |
| 20260509204050 | 11 | 263 | 1.6 | 3.2 | 0.00 | 0.74 | 0.74 | 99 | 1010.5 |
| 20260509203545 | 11 | 72 | 0.0 | 3.2 | 0.00 | 0.74 | 0.74 | 99 | 1010.6 |
| 20260509203044 | 11 | 305 | 3.2 | 6.4 | 0.00 | 0.74 | 0.74 | 99 | 1010.5 |
| 20260509202539 | 11 | 325 | 1.6 | 4.8 | 0.05 | 0.74 | 0.74 | 99 | 1010.6 |
| 20260509202035 | 11 | 294 | 0.0 | 3.2 | 0.13 | 0.74 | 0.74 | 99 | 1010.5 |
| 20260509201530 | 11 | 0 | 0.0 | 3.2 | 0.13 | 0.74 | 0.74 | 99 | 1010.7 |
| 20260509201027 | 11 | 269 | 0.0 | 3.2 | 0.13 | 0.74 | 0.74 | 99 | 1010.9 |
| 20260509200521 | 11 | 336 | 0.0 | 3.2 | 0.13 | 0.71 | 0.71 | 99 | 1010.9 |
| 20260509200019 | 11 | 340 | 1.6 | 3.2 | 0.05 | 0.71 | 0.71 | 99 | 1011.0 |
| 20260509195514 | 11 | 153 | 0.0 | 6.4 | 0.18 | 0.71 | 0.71 | 99 | 1011.4 |
| 20260509195014 | 11 | 321 | 0.0 | 4.8 | 0.23 | 0.69 | 0.69 | 99 | 1011.3 |
| 20260509194509 | 11 | 283 | 4.8 | 6.4 | 0.23 | 0.66 | 0.66 | 99 | 1011.4 |
| 20260509194007 | 11 | 280 | 1.6 | 4.8 | 0.23 | 0.66 | 0.66 | 99 | 1011.5 |
| 20260509193507 | 11 | 268 | 3.2 | 11.3 | 0.18 | 0.64 | 0.64 | 99 | 1011.5 |
| 20260509193004 | 11 | 285 | 1.6 | 4.8 | 0.23 | 0.61 | 0.61 | 99 | 1011.7 |
| 20260509192500 | 11 | 282 | 3.2 | 4.8 | 0.18 | 0.58 | 0.58 | 99 | 1011.6 |
| 20260509191955 | 11 | 285 | 3.2 | 4.8 | 0.13 | 0.56 | 0.56 | 99 | 1011.7 |
| 20260509191450 | 11 | 265 | 1.6 | 3.2 | 0.18 | 0.56 | 0.56 | 99 | 1011.6 |
| 20260509190946 | 11 | 285 | 1.6 | 4.8 | 0.18 | 0.53 | 0.53 | 99 | 1011.4 |
| 20260509190443 | 11 | 312 | 6.4 | 6.4 | 0.23 | 0.53 | 0.53 | 99 | 1011.6 |
| 20260509185941 | 11 | 324 | 1.6 | 4.8 | 0.18 | 0.51 | 0.51 | 98 | 1011.8 |
| 20260509185438 | 12 | 304 | 1.6 | 3.2 | 0.18 | 0.48 | 0.48 | 98 | 1011.9 |
| 20260509184935 | 11 | 284 | 3.2 | 4.8 | 0.13 | 0.46 | 0.46 | 98 | 1011.8 |
| 20260509184433 | 11 | 267 | 1.6 | 3.2 | 0.13 | 0.46 | 0.46 | 98 | 1012.0 |
| 20260509183929 | 11 | 278 | 3.2 | 3.2 | 0.18 | 0.43 | 0.43 | 98 | 1011.7 |
| 20260509183423 | 11 | 315 | 0.0 | 4.8 | 0.18 | 0.43 | 0.43 | 97 | 1011.8 |
| 20260509182920 | 11 | 339 | 0.0 | 8.0 | 0.13 | 0.41 | 0.41 | 97 | 1011.9 |
| 20260509182417 | 11 | 235 | 0.0 | 3.2 | 0.05 | 0.38 | 0.38 | 97 | 1011.9 |
| 20260509181914 | 11 | 249 | 0.0 | 3.2 | 0.18 | 0.38 | 0.38 | 97 | 1011.6 |
| 20260509181412 | 11 | 55 | 0.0 | 3.2 | 0.30 | 0.38 | 0.38 | 96 | 1011.8 |
| 20260509180909 | 11 | 141 | 3.2 | 6.4 | 0.43 | 0.33 | 0.33 | 96 | 1011.6 |
| 20260509180404 | 11 | 84 | 0.0 | 4.8 | 0.53 | 0.30 | 0.30 | 96 | 1012.2 |
| 20260509175901 | 12 | 174 | 4.8 | 8.0 | 0.43 | 0.25 | 0.25 | 96 | 1012.1 |
| 20260509175357 | 11 | 129 | 4.8 | 8.0 | 0.30 | 0.23 | 0.23 | 95 | 1012.3 |
| 20260509174853 | 12 | 221 | 0.0 | 4.8 | 0.18 | 0.18 | 0.18 | 95 | 1012.1 |
| 20260509174349 | 12 | 343 | 3.2 | 4.8 | 0.13 | 0.18 | 0.18 | 95 | 1012.3 |
| 20260509173845 | 12 | 128 | 3.2 | 6.4 | 0.13 | 0.15 | 0.15 | 94 | 1012.0 |
| 20260509173340 | 12 | 334 | 4.8 | 4.8 | 0.13 | 0.15 | 0.15 | 93 | 1011.9 |
| 20260509172837 | 12 | 343 | 0.0 | 4.8 | 0.13 | 0.15 | 0.15 | 93 | 1012.0 |
| 20260509172334 | 12 | 268 | 0.0 | 4.8 | 0.13 | 0.13 | 0.13 | 92 | 1012.1 |
| 20260509171830 | 12 | 189 | 0.0 | 8.0 | 0.05 | 0.13 | 0.13 | 91 | 1012.0 |
| 20260509171325 | 12 | 338 | 3.2 | 9.7 | 0.00 | 0.10 | 0.10 | 89 | 1011.9 |
| 20260509170822 | 12 | 283 | 1.6 | 12.9 | 0.05 | 0.10 | 0.10 | 90 | 1011.9 |
| 20260509170318 | 12 | 326 | 3.2 | 8.0 | 0.05 | 0.10 | 0.10 | 90 | 1012.1 |
| 20260509165818 | 12 | 200 | 0.0 | 9.7 | 0.00 | 0.10 | 0.10 | 91 | 1011.9 |
| 20260509165312 | 12 | 317 | 4.8 | 12.9 | 0.00 | 0.10 | 0.10 | 92 | 1012.1 |
| 20260509164809 | 12 | 326 | 3.2 | 4.8 | 0.05 | 0.10 | 0.10 | 93 | 1012.0 |
| 20260509164305 | 12 | 346 | 3.2 | 9.7 | 0.05 | 0.10 | 0.10 | 92 | 1012.1 |
| 20260509163801 | 12 | 319 | 3.2 | 6.4 | 0.00 | 0.10 | 0.10 | 91 | 1012.0 |
| 20260509163258 | 12 | 348 | 4.8 | 6.4 | 0.00 | 0.10 | 0.10 | 91 | 1011.8 |
| 20260509162757 | 12 | 356 | 0.0 | 4.8 | 0.00 | 0.10 | 0.10 | 92 | 1011.8 |
| 20260509162251 | 12 | 31 | 3.2 | 4.8 | 0.00 | 0.10 | 0.10 | 92 | 1012.0 |
| 20260509161747 | 12 | 159 | 0.0 | 6.4 | 0.00 | 0.10 | 0.10 | 93 | 1011.9 |
| 20260509161243 | 12 | 309 | 6.4 | 8.0 | 0.00 | 0.10 | 0.10 | 92 | 1011.9 |
| 20260509160738 | 12 | 322 | 3.2 | 4.8 | 0.00 | 0.10 | 0.10 | 93 | 1012.1 |
| 20260509160230 | 12 | 33 | 1.6 | 4.8 | 0.00 | 0.10 | 0.10 | 92 | 1012.1 |
| 20260509155725 | 12 | 92 | 3.2 | 4.8 | 0.00 | 0.10 | 0.10 | 92 | 1012.0 |
| 20260509155222 | 12 | 283 | 0.0 | 3.2 | 0.00 | 0.10 | 0.10 | 91 | 1012.1 |
| 20260509154718 | 12 | 38 | 0.0 | 4.8 | 0.00 | 0.10 | 0.10 | 91 | 1012.1 |
| 20260509154215 | 12 | 268 | 3.2 | 4.8 | 0.00 | 0.10 | 0.10 | 92 | 1012.1 |
| 20260509153712 | 12 | 22 | 4.8 | 8.0 | 0.00 | 0.10 | 0.10 | 92 | 1012.2 |
| 20260509153208 | 12 | 3 | 3.2 | 3.2 | 0.00 | 0.10 | 0.10 | 92 | 1012.3 |
| 20260509152704 | 12 | 102 | 0.0 | 6.4 | 0.05 | 0.10 | 0.10 | 92 | 1012.2 |
| 20260509152201 | 12 | 131 | 4.8 | 11.3 | 0.05 | 0.10 | 0.10 | 92 | 1012.1 |
| 20260509151658 | 12 | 314 | 3.2 | 8.0 | 0.05 | 0.08 | 0.08 | 92 | 1012.2 |
| 20260509151155 | 12 | 242 | 1.6 | 9.7 | 0.05 | 0.08 | 0.08 | 92 | 1012.3 |
| 20260509150653 | 12 | 348 | 3.2 | 6.4 | 0.00 | 0.08 | 0.08 | 92 | 1012.4 |
| 20260509150151 | 12 | 356 | 1.6 | 4.8 | 0.05 | 0.08 | 0.08 | 92 | 1012.7 |
| 20260509145647 | 12 | 348 | 0.0 | 6.4 | 0.05 | 0.08 | 0.08 | 91 | 1012.6 |
| 20260509145142 | 12 | 217 | 0.0 | 9.7 | 0.00 | 0.05 | 0.05 | 90 | 1012.6 |
| 20260509144639 | 12 | 309 | 1.6 | 8.0 | 0.05 | 0.05 | 0.05 | 88 | 1012.4 |
| 20260509144136 | 12 | 131 | 3.2 | 14.5 | 0.05 | 0.05 | 0.05 | 87 | 1012.5 |
| 20260509143633 | 12 | 268 | 3.2 | 9.7 | 0.00 | 0.05 | 0.05 | 86 | 1012.5 |
| 20260509143131 | 13 | 30 | 0.0 | 6.4 | 0.00 | 0.05 | 0.05 | 85 | 1012.3 |
| 20260509142626 | 13 | 306 | 0.0 | 4.8 | 0.00 | 0.05 | 0.05 | 83 | 1012.2 |
| 20260509142123 | 13 | 298 | 0.0 | 3.2 | 0.00 | 0.05 | 0.05 | 83 | 1012.0 |
| 20260509141619 | 13 | 29 | 0.0 | 8.0 | 0.00 | 0.05 | 0.05 | 82 | 1011.7 |
| 20260509141115 | 13 | 357 | 4.8 | 8.0 | 0.00 | 0.05 | 0.05 | 83 | 1012.1 |
| 20260509140612 | 13 | 271 | 3.2 | 8.0 | 0.00 | 0.05 | 0.05 | 82 | 1012.0 |
| 20260509140110 | 13 | 94 | 3.2 | 4.8 | 0.00 | 0.05 | 0.05 | 84 | 1011.7 |
| 20260509135607 | 12 | 145 | 3.2 | 4.8 | 0.00 | 0.05 | 0.05 | 85 | 1011.8 |
| 20260509135105 | 12 | 58 | 3.2 | 4.8 | 0.00 | 0.05 | 0.05 | 84 | 1012.0 |
| 20260509134602 | 12 | 35 | 3.2 | 6.4 | 0.00 | 0.05 | 0.05 | 85 | 1012.0 |
| 20260509134059 | 12 | 318 | 4.8 | 6.4 | 0.00 | 0.05 | 0.05 | 86 | 1011.8 |
| 20260509133556 | 11 | 32 | 0.0 | 4.8 | 0.00 | 0.05 | 0.05 | 86 | 1012.1 |
| 20260509133053 | 11 | 0 | 3.2 | 6.4 | 0.00 | 0.05 | 0.05 | 85 | 1012.3 |
| 20260509132552 | 11 | 30 | 4.8 | 6.4 | 0.00 | 0.05 | 0.05 | 85 | 1012.1 |